[Date Prev][Date Next][Thread Prev][Thread Next] - [Date Index][Thread Index][Author Index]
2 Line ISS Keps 8-9
- Subject: [sarex] 2 Line ISS Keps 8-9
- From: "Dave Larsen PhD" <doc@xxxxxxxxxxx>
- Date: Sat, 9 Aug 2003 04:56:44 -0700
ISS
1 25544U 98067A 03221.14106256 .00016048 00000-0 19262-3 0 3124
2 25544 51.6317 113.7299 0008126 103.3223 13.7572 15.61036795269272
----
Via the sarex mailing list at AMSAT.ORG courtesy of AMSAT-NA.
To unsubscribe, send "unsubscribe sarex" to Majordomo@amsat.org
AMSAT Home